Regional Weather Roundup
Issued by NWS

Home | Current Version | Previous Version | Text Only | Print | Product List | Glossary Off
Versions: 1 2 3 4 5 6 7 8 9 10 11 12 13 14 15 16 17 18 19 20 21 22 23 24 25 26 27 28 29 30 31 32 33 34 35 36 37 38 39 40 41 42 43 44 45 46 47 48 49 50

000
ASUS43 KIND 251859
RWRIN

WEATHER ROUNDUP FOR INDIANA
NATIONAL WEATHER SERVICE INDIANAPOLIS IN
200 PM EST SUN JAN 25 2015

NOTE: "FAIR" INDICATES FEW OR NO CLOUDS BELOW 12,000 FEET WITH NO
SIGNIFICANT WEATHER AND/OR OBSTRUCTIONS TO VISIBILITY.

* - STATION DOES NOT REPORT WEATHER SUCH AS PRECIPITATION OR FOG.

+ - STATION NOT QUALITY CONTROLLED BY THE NATIONAL WEATHER SERVICE.
    USE DATA WITH CAUTION...ESPECIALLY DEWPOINT AND RELATIVE
    HUMIDITY OBSERVATIONS.

INZ001>003-010>013-019-020-252000-
NORTHWEST INDIANA

CITY           SKY/WX    TMP DP  RH WIND       PRES   REMARKS
GARY /AIRPORT/ LGT SNOW  32  28  86 NE15G31   29.79R WCI  22
VALPARAISO     LGT SNOW  31  29  92 NE14G24   29.75S VSB 3/4 WCI  21

$$

LMZ046-743>745-252000-
SOUTHERN LAKE MICHIGAN

STATION/POSITION TIME  TEMP WIND        PRES
                       AIR  DIR/SP/G
                 (UTC) (F)  (DEG/KT/KT) (MB)
MICHIGAN CITY    1800   30   30/ 20/ 22   N/A

$$

INZ004-005-014>016-021>024-252000-
NORTH CENTRAL INDIANA

CITY           SKY/WX    TMP DP  RH WIND       PRES   REMARKS
GOSHEN         LGT SNOW  29  26  89 E17       29.77R VSB 3/4 WCI  17
SOUTH BEND     LGT SNOW  29  25  85 E9        29.78S VSB 1   WCI  20

$$

INZ006>009-017-018-025>027-252000-
NORTHEAST INDIANA

CITY           SKY/WX    TMP DP  RH WIND       PRES   REMARKS
ANGOLA *+      CLOUDY    25  21  86 E13       29.79S WCI  13
FORT WAYNE     LGT SNOW  28  24  85 E23G30    29.75F FOG     WCI  14

$$

INZ028-029-035-036-043>045-051>053-252000-
WEST CENTRAL INDIANA

CITY           SKY/WX    TMP DP  RH WIND       PRES   REMARKS
GREENCASTLE +  CLOUDY    37  32  81 E6        29.62F
LAFAYETTE      LGT SNOW  32  32 100 NE13      29.67S VSB 1   WCI  22
TERRE HAUTE    CLOUDY    38  36  92 SE7       29.61F

$$

INZ030>032-037>040-046>048-054>057-064-065-252000-
CENTRAL INDIANA

CITY           SKY/WX    TMP DP  RH WIND       PRES   REMARKS
COLUMBUS       CLOUDY    37  32  81 SE6       29.64F
INDIANAPOLIS   CLOUDY    36  32  85 E9        29.62F
-EAGLE CREEK   CLOUDY    37  34  89 E6        29.63F
KOKOMO *+      CLOUDY    30  28  93 E18       29.69S WCI  18
MT COMFORT *+  CLOUDY    36 N/A N/A E8        29.64F
SHELBYVILLE    CLOUDY    39  34  82 E7        29.63F

$$

INZ033-034-041-042-049-050-058-059-252000-
EAST CENTRAL INDIANA

CITY           SKY/WX    TMP DP  RH WIND       PRES   REMARKS
MUNCIE         SNOW      33  32  96 E8        29.68R VSB 1/2 WCI  26

$$

INZ060-061-067>069-081>083-085>088-252000-
SOUTHWEST INDIANA

CITY           SKY/WX    TMP DP  RH WIND       PRES   REMARKS
EVANSVILLE     LGT RAIN  42  39  89 S6        29.61F FOG
HUNTINGBURG *+ CLOUDY    39  36  87 SW10      29.63R

$$

INZ062-063-066-070>080-084-089>092-252000-
SOUTH CENTRAL AND SOUTHEAST INDIANA

CITY           SKY/WX    TMP DP  RH WIND       PRES   REMARKS
BLOOMINGTON    CLOUDY    39  36  89 SE6       29.61F

$$




USA.gov is the U.S. government's official web portal to all federal, state and local government web resources and services.